GW3949 Weather Reports


time (UTC)temp
C
wind
direction
speed
KPH
gust
KPH
rain 1hr
cm
rain 24hr
cm
rain mn
cm
humidity
%
barometer
mb
20260510010404 11 200 9.7 12.9 0.00 0.94 0.94 91 1007.5
20260510005904 11 198 8.0 14.5 0.00 0.94 0.94 91 1007.5
20260510005404 11 198 8.0 12.9 0.00 0.94 0.94 91 1007.4
20260510004905 11 205 8.0 19.3 0.00 0.94 0.94 91 1007.4
20260510004404 11 197 8.0 12.9 0.00 0.94 0.94 91 1007.4
20260510003904 11 189 8.0 12.9 0.00 0.94 0.94 91 1007.3
20260510003405 11 199 9.7 16.1 0.00 0.94 0.94 91 1007.3
20260510002904 11 196 8.0 12.9 0.00 0.94 0.94 91 1007.2
20260510002404 11 203 4.8 12.9 0.00 0.94 0.94 91 1007.3
20260510001904 11 198 8.0 14.5 0.00 0.94 0.94 90 1007.3
20260510000904 11 197 8.0 11.3 0.00 0.94 0.94 90 1007.2
20260510000404 11 191 4.8 9.7 0.00 0.94 0.94 89 1007.2
20260509235904 12 197 4.8 11.3 0.00 0.94 0.94 89 1007.2
20260509235404 12 204 6.4 12.9 0.00 0.94 0.94 89 1007.1
20260509234904 12 208 8.0 12.9 0.00 0.94 0.94 88 1007.0
20260509234404 12 215 6.4 12.9 0.00 0.94 0.94 88 1007.0
20260509233904 12 191 4.8 8.0 0.00 0.94 0.94 87 1007.0
20260509233404 12 205 3.2 8.0 0.00 0.94 0.94 86 1007.0
20260509232904 12 242 1.6 4.8 0.00 0.94 0.94 85 1006.9
20260509232404 12 251 3.2 9.7 0.00 0.94 0.94 85 1006.7
20260509231904 12 243 4.8 9.7 0.00 0.97 0.94 84 1006.7
20260509230904 12 258 6.4 16.1 0.00 0.97 0.94 85 1006.6
20260509225904 12 222 3.2 12.9 0.00 0.97 0.94 86 1006.6
20260509225404 12 261 4.8 12.9 0.00 0.97 0.94 86 1006.7
20260509224404 12 250 6.4 22.5 0.00 0.97 0.94 86 1006.7
20260509223404 12 242 6.4 12.9 0.00 0.97 0.94 88 1006.8
20260509222904 12 209 4.8 11.3 0.00 0.97 0.94 88 1007.0
20260509222404 12 212 8.0 11.3 0.00 0.97 0.94 88 1006.9
20260509221904 12 211 6.4 9.7 0.00 0.97 0.94 88 1006.9
20260509221404 12 339 4.8 14.5 0.00 0.97 0.94 88 1006.9
20260509220404 12 226 8.0 14.5 0.00 0.97 0.94 89 1006.9
20260509215904 12 255 4.8 11.3 0.00 0.97 0.94 90 1006.9
20260509215403 11 231 4.8 11.3 0.00 0.97 0.94 90 1007.0
20260509214904 11 229 8.0 14.5 0.00 0.97 0.94 90 1007.0
20260509214404 11 271 9.7 16.1 0.00 0.97 0.94 90 1007.1
20260509213904 11 258 4.8 9.7 0.00 0.97 0.94 90 1007.0
20260509213405 11 221 3.2 8.0 0.00 0.97 0.94 90 1007.0
20260509212904 11 213 4.8 11.3 0.00 0.97 0.94 90 1007.2
20260509211404 11 238 4.8 11.3 0.00 0.97 0.94 90 1007.2
20260509210904 11 334 6.4 16.1 0.00 0.97 0.94 90 1007.2
20260509210403 11 318 6.4 9.7 0.00 0.97 0.94 90 1007.3
20260509205904 11 282 6.4 12.9 0.00 0.97 0.94 91 1007.4
20260509205404 11 305 3.2 9.7 0.00 0.97 0.94 91 1007.4
20260509204903 11 305 8.0 19.3 0.00 0.97 0.94 91 1007.5
20260509204403 11 320 6.4 19.3 0.00 0.97 0.94 91 1007.5
20260509203909 11 301 8.0 19.3 0.00 0.97 0.94 91 1007.6
20260509203404 11 252 8.0 22.5 0.03 0.97 0.94 91 1007.5
20260509202404 11 240 8.0 16.1 0.03 0.97 0.94 91 1007.5
20260509201404 10 218 8.0 11.3 0.03 0.97 0.94 91 1007.5
20260509200906 10 228 8.0 19.3 0.03 0.99 0.94 91 1007.6
20260509200403 10 227 4.8 12.9 0.03 0.99 0.94 91 1007.6
20260509195903 10 217 4.8 9.7 0.05 0.99 0.94 91 1007.6
20260509194904 10 242 6.4 11.3 0.08 0.99 0.94 91 1007.7
20260509194403 10 230 3.2 11.3 0.08 0.99 0.94 91 1007.7
20260509193903 10 243 4.8 12.9 0.10 0.99 0.94 91 1007.7
20260509193403 10 310 4.8 14.5 0.10 0.97 0.91 91 1007.9
20260509192906 10 281 8.0 14.5 0.13 0.97 0.91 91 1008.0
20260509191906 10 270 4.8 12.9 0.15 0.97 0.91 91 1008.2
20260509191406 10 344 3.2 4.8 0.15 0.97 0.91 91 1008.2
20260509190905 10 250 3.2 8.0 0.18 0.97 0.91 91 1008.2
20260509190406 10 283 6.4 11.3 0.20 0.97 0.91 91 1008.2
20260509184906 10 191 8.0 16.1 0.23 0.91 0.86 91 1008.4
20260509184406 10 309 8.0 22.5 0.25 0.91 0.86 91 1008.4
20260509183905 10 320 4.8 14.5 0.25 0.89 0.84 91 1008.4
20260509182905 10 244 8.0 20.9 0.25 0.84 0.79 91 1008.7
20260509181906 10 224 8.0 19.3 0.25 0.81 0.76 91 1008.5
20260509181406 10 203 6.4 19.3 0.28 0.81 0.76 91 1008.4
20260509180905 9 264 9.7 16.1 0.28 0.79 0.74 90 1008.5
20260509180405 9 236 8.0 19.3 0.25 0.76 0.71 90 1008.6
20260509175906 9 262 11.3 20.9 0.28 0.76 0.71 90 1008.5
20260509174405 9 207 11.3 20.9 0.28 0.66 0.61 90 1008.6
20260509173905 9 213 11.3 20.9 0.28 0.64 0.58 90 1008.6
20260509172905 9 208 8.0 16.1 0.25 0.58 0.53 90 1008.6
20260509172406 9 207 9.7 16.1 0.25 0.56 0.51 90 1008.6
20260509171905 9 212 9.7 19.3 0.28 0.56 0.51 90 1008.7
20260509171405 9 204 9.7 14.5 0.28 0.53 0.48 90 1008.7
20260509170405 9 202 11.3 20.9 0.25 0.51 0.46 91 1008.7
20260509165905 9 202 9.7 19.3 0.25 0.48 0.43 91 1008.8
20260509165405 9 206 9.7 19.3 0.23 0.46 0.41 91 1008.8
20260509164905 9 212 8.0 14.5 0.20 0.41 0.36 91 1008.8
20260509164405 9 203 11.3 14.5 0.18 0.38 0.33 91 1008.7
20260509163905 9 219 9.7 16.1 0.15 0.36 0.30 91 1008.8
20260509163405 9 210 8.0 14.5 0.13 0.33 0.28 91 1008.8
20260509162905 9 205 8.0 14.5 0.13 0.33 0.28 91 1008.8
20260509162405 9 197 8.0 16.1 0.10 0.30 0.25 91 1008.9
20260509161905 9 203 11.3 19.3 0.08 0.28 0.23 91 1009.0
20260509161405 9 212 8.0 16.1 0.05 0.25 0.20 91 1009.0
20260509160905 9 209 8.0 19.3 0.05 0.25 0.20 91 1009.1
20260509154905 9 189 8.0 16.1 0.03 0.20 0.15 91 1008.9
20260509154405 9 179 8.0 14.5 0.03 0.20 0.15 91 1008.9
20260509153405 9 203 9.7 14.5 0.05 0.20 0.15 91 1009.0
20260509152905 9 197 9.7 12.9 0.05 0.20 0.15 91 1009.1
20260509151905 9 187 8.0 14.5 0.05 0.20 0.15 91 1009.2
20260509151405 9 197 8.0 12.9 0.05 0.20 0.15 91 1009.1
20260509150905 9 188 4.8 9.7 0.08 0.20 0.15 91 1009.1
20260509150405 9 194 4.8 9.7 0.08 0.20 0.15 91 1009.0
20260509145405 9 209 8.0 12.9 0.08 0.18 0.13 91 1008.9
20260509144905 9 198 4.8 9.7 0.08 0.18 0.13 91 1008.9
20260509144405 9 190 4.8 8.0 0.08 0.18 0.13 91 1009.0
20260509143905 9 205 4.8 9.7 0.08 0.15 0.10 91 1009.0
20260509142905 9 148 1.6 3.2 0.08 0.15 0.10 90 1008.5
20260509142405 9 149 3.2 8.0 0.08 0.15 0.10 90 1008.5
20260509141905 9 161 3.2 8.0 0.08 0.15 0.10 90 1008.6
20260509141405 9 159 3.2 9.7 0.08 0.15 0.10 90 1008.7
20260509140905 9 178 4.8 9.7 0.05 0.13 0.08 90 1009.0
20260509140406 9 191 4.8 19.3 0.05 0.13 0.08 90 1009.1
20260509135905 9 189 9.7 20.9 0.05 0.13 0.08 89 1009.1
20260509135405 9 198 9.7 19.3 0.03 0.10 0.05 89 1009.1
20260509134906 9 203 6.4 12.9 0.03 0.10 0.05 89 1009.1
20260509133905 9 164 8.0 12.9 0.00 0.08 0.03 88 1008.7
20260509133405 9 166 4.8 12.9 0.00 0.08 0.03 89 1008.5
20260509132905 9 202 4.8 9.7 0.00 0.08 0.03 89 1008.6
20260509132405 9 181 3.2 9.7 0.00 0.08 0.03 88 1008.6
20260509131905 9 156 3.2 8.0 0.00 0.08 0.03 88 1008.5
20260509130905 9 152 3.2 11.3 0.00 0.08 0.03 88 1008.5
20260509130405 9 156 4.8 12.9 0.00 0.08 0.03 88 1008.6
20260509125905 9 185 6.4 12.9 0.00 0.08 0.03 87 1008.6
20260509124404 9 171 8.0 16.1 0.00 0.08 0.03 87 1008.6
20260509123905 9 170 8.0 19.3 0.00 0.08 0.03 87 1008.8
20260509123405 9 135 3.2 12.9 0.00 0.08 0.03 86 1008.6
20260509122905 9 148 6.4 14.5 0.00 0.08 0.03 86 1008.7
20260509121905 9 157 8.0 14.5 0.00 0.08 0.03 87 1008.7
20260509121405 9 169 4.8 9.7 0.00 0.08 0.03 87 1008.7
20260509120905 9 158 4.8 11.3 0.00 0.08 0.03 87 1008.8
20260509120405 9 164 6.4 12.9 0.00 0.08 0.03 87 1008.8
20260509115905 9 161 4.8 12.9 0.00 0.08 0.03 88 1008.8
20260509115405 9 154 4.8 12.9 0.00 0.08 0.03 88 1008.7
20260509114905 9 162 4.8 11.3 0.00 0.08 0.03 88 1008.7
20260509114404 9 149 4.8 9.7 0.00 0.08 0.03 88 1008.7
20260509113905 8 163 4.8 8.0 0.00 0.08 0.03 88 1008.7
20260509113405 8 159 4.8 8.0 0.03 0.08 0.03 88 1008.7
20260509112904 8 153 4.8 9.7 0.03 0.08 0.03 88 1008.8
20260509112404 8 168 3.2 8.0 0.03 0.08 0.03 88 1008.9
20260509111905 8 156 3.2 9.7 0.03 0.08 0.03 88 1008.9
20260509110405 8 166 4.8 11.3 0.03 0.08 0.03 87 1008.9
20260509105905 8 165 3.2 9.7 0.03 0.08 0.03 87 1008.9
20260509105405 8 158 3.2 9.7 0.03 0.08 0.03 87 1008.7
20260509104905 8 159 4.8 12.9 0.03 0.08 0.03 87 1008.7
20260509103905 8 152 3.2 11.3 0.03 0.08 0.03 87 1008.7
20260509103405 8 156 4.8 8.0 0.00 0.05 0.00 87 1008.9
20260509102904 8 133 4.8 8.0 0.00 0.05 0.00 87 1008.9
20260509102404 8 144 3.2 4.8 0.00 0.05 0.00 87 1008.8
20260509101904 8 154 6.4 11.3 0.00 0.05 0.00 87 1008.6
20260509101405 8 144 4.8 11.3 0.00 0.05 0.00 87 1008.7
20260509100905 8 207 3.2 9.7 0.00 0.05 0.00 87 1008.7
20260509094404 8 148 9.7 16.1 0.00 0.05 0.00 88 1008.5
20260509093905 8 162 3.2 8.0 0.00 0.05 0.00 88 1008.8
20260509092405 8 140 3.2 8.0 0.00 0.05 0.00 87 1008.9
20260509091905 8 156 3.2 4.8 0.00 0.05 0.00 87 1008.9
20260509091405 8 159 3.2 4.8 0.00 0.05 0.00 87 1008.9
20260509090905 8 165 1.6 4.8 0.00 0.05 0.00 87 1009.0
20260509090405 8 165 1.6 4.8 0.00 0.05 0.00 87 1009.0
20260509085905 8 165 1.6 3.2 0.00 0.05 0.00 87 1009.1
20260509085404 8 165 1.6 4.8 0.00 0.05 0.00 87 1009.1
20260509084905 8 166 1.6 4.8 0.00 0.05 0.00 88 1009.0
20260509084405 8 166 3.2 4.8 0.00 0.05 0.00 88 1009.1
20260509083905 8 170 3.2 4.8 0.00 0.05 0.00 88 1009.1
20260509083404 8 180 1.6 3.2 0.00 0.05 0.00 88 1009.1
20260509082405 8 176 3.2 4.8 0.00 0.05 0.00 88 1009.3
20260509081405 8 168 1.6 4.8 0.00 0.05 0.00 89 1009.4
20260509080904 8 169 3.2 4.8 0.00 0.05 0.00 89 1009.6
20260509080404 8 169 1.6 4.8 0.00 0.05 0.00 89 1009.7
20260509075404 8 169 1.6 4.8 0.00 0.05 0.00 89 1009.7
20260509073905 8 171 3.2 4.8 0.00 0.05 0.00 89 1009.7
20260509073405 8 175 3.2 4.8 0.00 0.05 0.00 89 1009.7
20260509072904 8 175 1.6 4.8 0.00 0.05 0.00 89 1009.9
20260509072405 8 178 1.6 4.8 0.00 0.05 0.00 89 1009.9
20260509071904 8 175 1.6 4.8 0.00 0.05 0.00 89 1009.9
20260509070904 8 169 3.2 4.8 0.00 0.05 0.00 89 1009.9
20260509070404 8 158 3.2 4.8 0.00 0.05 0.00 89 1010.0
20260509065905 8 158 3.2 4.8 0.00 0.05 0.00 89 1009.9
20260509065404 8 147 1.6 4.8 0.00 0.05 0.00 89 1009.8
20260509064904 8 195 1.6 4.8 0.00 0.05 0.00 89 1009.7
20260509063905 8 0 0.0 3.2 0.00 0.05 0.00 89 1009.7
20260509063404 8 0 1.6 4.8 0.00 0.05 0.00 89 1009.8
20260509062404 8 0 0.0 1.6 0.00 0.05 0.00 88 1010.0
20260509060905 9 354 3.2 4.8 0.00 0.05 0.00 88 1010.0
20260509060404 9 0 3.2 8.0 0.00 0.05 0.00 88 1010.0
20260509055404 9 3 4.8 4.8 0.00 0.05 0.00 87 1010.2
20260509054905 9 226 3.2 4.8 0.00 0.05 0.00 87 1010.3
20260509054405 9 201 0.0 3.2 0.00 0.05 0.00 87 1010.3
20260509053905 9 201 3.2 4.8 0.00 0.05 0.00 86 1010.4
20260509053405 9 207 4.8 8.0 0.00 0.08 0.00 86 1010.5
20260509052904 9 210 3.2 9.7 0.00 0.08 0.00 86 1010.6
20260509052404 9 194 8.0 12.9 0.00 0.08 0.00 86 1010.6
20260509051905 9 192 8.0 16.1 0.00 0.08 0.00 86 1010.6
20260509051404 9 184 6.4 12.9 0.00 0.10 0.00 86 1010.6
20260509050904 9 197 4.8 9.7 0.00 0.13 0.00 86 1010.7
20260509050404 9 205 4.8 9.7 0.00 0.15 0.00 86 1010.6
20260509045904 9 202 6.4 11.3 0.00 0.18 0.00 86 1010.7
20260509045404 9 208 8.0 11.3 0.00 0.18 0.00 86 1010.7
20260509044904 9 208 8.0 14.5 0.00 0.18 0.00 87 1010.7
20260509044409 9 194 6.4 11.3 0.00 0.18 0.00 87 1010.8
20260509043904 9 190 6.4 11.3 0.00 0.18 0.00 88 1010.7
20260509043404 9 197 4.8 8.0 0.00 0.18 0.00 87 1010.5
20260509042904 9 0 1.6 4.8 0.00 0.18 0.00 87 1010.0
20260509041904 9 11 3.2 8.0 0.00 0.18 0.00 86 1010.1
20260509041404 10 0 3.2 8.0 0.00 0.18 0.00 86 1010.1
20260509040904 10 0 4.8 8.0 0.00 0.18 0.00 85 1010.2
20260509040404 10 0 3.2 8.0 0.00 0.18 0.00 84 1010.2
20260509035904 10 0 6.4 9.7 0.00 0.18 0.18 84 1010.2
20260509034904 10 356 8.0 11.3 0.00 0.18 0.18 84 1010.3
20260509034404 10 286 6.4 12.9 0.00 0.18 0.18 84 1010.5
20260509033904 10 332 6.4 11.3 0.00 0.18 0.18 84 1010.6
20260509033404 10 279 3.2 4.8 0.00 0.18 0.18 85 1010.5
20260509032904 10 209 3.2 4.8 0.00 0.18 0.18 85 1010.5
20260509032404 10 236 3.2 4.8 0.00 0.18 0.18 85 1010.7
20260509031904 10 219 3.2 4.8 0.00 0.18 0.18 85 1010.7
20260509031404 10 271 1.6 4.8 0.00 0.18 0.18 85 1010.7
20260509030905 9 277 1.6 4.8 0.00 0.18 0.18 86 1010.8
20260509030404 9 276 1.6 3.2 0.00 0.18 0.18 86 1011.0
20260509025404 9 226 1.6 4.8 0.00 0.18 0.18 87 1011.0
20260509024904 9 221 3.2 4.8 0.00 0.18 0.18 87 1010.9
20260509024404 9 242 3.2 4.8 0.00 0.18 0.18 86 1010.8
20260509023905 9 202 1.6 4.8 0.00 0.18 0.18 86 1010.5
20260509022408 10 239 1.6 4.8 0.00 0.18 0.18 84 1010.6
20260509021404 10 237 1.6 3.2 0.00 0.18 0.18 83 1010.6
20260509020904 10 237 0.0 4.8 0.00 0.18 0.18 83 1010.6
20260509020404 10 236 1.6 3.2 0.00 0.18 0.18 83 1010.7
20260509015404 10 236 1.6 4.8 0.00 0.18 0.18 82 1010.5
20260509014905 10 297 1.6 4.8 0.00 0.18 0.18 82 1010.5
20260509014404 10 0 1.6 3.2 0.00 0.18 0.18 82 1010.5
20260509013904 10 357 3.2 4.8 0.00 0.18 0.18 82 1010.4
20260509013404 10 326 3.2 4.8 0.00 0.18 0.18 81 1010.4
20260509012905 10 294 1.6 4.8 0.00 0.18 0.18 82 1010.3
20260509012405 10 242 3.2 8.0 0.00 0.18 0.18 81 1010.4
20260509011904 10 0 1.6 9.7 0.00 0.18 0.18 82 1010.3
20260509011405 10 338 4.8 9.7 0.00 0.18 0.18 82 1010.2
20260509010905 10 337 3.2 9.7 0.00 0.18 0.18 82 1010.3